Wind_Speed
5 6 7 6 3 1 4 3 2 3 5 6 7 7 8 9 10 10 11 11 12 12 14 14 15 15 16 16 17 17 16 16 16 15 14 14 13 13 12 12 11 12 12 12 12 12 12 13 13
6 7 6 4 2 2 2 1 2 5 6 8 8 9 10 11 12 13 14 14 15 16 17 17 18 19 19 19 19 20 20 19 19 19 18 17 16 16 15 15 14 13 12 12 12 12 12 12 12
8 8 7 4 3 3 2 3 5 7 8 9 10 11 12 13 14 15 16 17 17 18 19 20 21 21 22 22 22 23 23 22 22 21 21 20 19 19 18 18 16 15 14 13 13 13 12 12 12
9 10 10 7 5 5 5 6 7 8 9 10 11 12 13 15 16 17 18 19 19 21 22 23 23 24 25 25 25 25 26 26 26 25 24 23 22 21 21 20 19 18 17 16 15 14 13 13 13
10 10 10 8 7 8 8 8 9 9 10 11 12 13 15 16 17 18 19 20 21 22 24 25 26 26 26 27 27 28 28 29 29 29 28 26 25 24 23 23 22 21 20 19 17 16 15 14 13
11 11 11 11 10 10 10 10 10 11 12 12 14 15 16 17 18 19 20 21 22 23 24 25 26 26 26 26 27 27 28 29 29 30 30 29 28 27 26 25 24 24 23 22 20 18 17 16 14
13 14 13 13 12 11 11 11 11 12 13 13 15 16 17 18 19 20 21 22 23 23 24 24 25 25 25 25 26 26 27 28 29 30 31 31 31 30 28 28 27 26 26 25 24 22 19 17 16
15 15 15 14 13 13 13 13 13 14 14 14 15 16 16 18 19 20 21 22 22 22 22 22 22 22 22 22 23 24 25 26 27 29 30 31 31 31 31 30 29 28 27 27 26 24 22 20 18
16 16 15 14 14 15 15 14 14 14 14 14 14 16 17 18 19 20 20 20 20 21 21 21 21 21 21 21 22 22 23 24 25 26 28 30 31 32 32 30 29 29 28 27 27 26 23 22 20
17 16 15 14 14 15 16 14 14 14 13 14 14 15 17 17 18 18 18 19 19 19 20 20 20 20 20 21 21 21 21 22 23 24 25 27 29 30 31 31 31 30 30 28 26 27 25 23 21
18 17 17 15 13 14 14 14 13 13 12 13 15 16 16 15 16 17 17 17 17 18 18 19 19 19 19 19 19 19 19 20 20 21 23 25 26 28 29 30 31 31 30 30 28 26 26 24 22
19 18 17 16 14 14 14 14 12 12 12 13 14 15 14 14 15 15 16 16 16 17 18 19 19 19 19 19 18 18 19 19 19 20 20 22 23 25 27 28 29 30 30 30 30 29 28 26 24
19 17 15 14 12 12 12 12 12 12 12 12 13 13 13 13 13 13 14 14 16 17 18 18 19 18 18 18 17 17 18 18 19 19 19 20 20 21 23 26 27 28 28 28 28 28 29 29 26
19 17 15 14 12 11 12 12 13 12 12 12 12 12 11 11 11 12 13 14 16 17 18 18 19 19 18 17 17 16 16 16 16 16 16 17 18 18 20 22 24 26 27 27 28 28 27 28 28
17 16 15 13 11 11 12 12 12 11 12 11 11 10 9 9 10 11 12 13 15 16 17 18 18 19 18 18 17 17 17 16 15 14 14 14 15 16 17 19 21 22 24 26 27 27 28 27 28
15 14 13 11 10 11 12 12 12 12 11 11 10 9 7 7 8 9 11 12 14 15 16 17 18 19 19 19 18 17 17 15 14 13 12 11 12 13 14 15 17 19 21 23 25 26 26 27 28
14 13 11 10 9 11 11 11 12 11 10 10 9 7 5 5 6 8 10 12 13 15 16 17 18 19 20 20 19 18 17 16 14 13 12 10 10 10 11 12 14 16 17 19 22 24 26 26 27
14 13 9 9 10 11 11 12 12 11 10 9 7 6 3 3 5 7 9 11 13 14 16 17 19 20 20 20 20 19 18 17 16 15 13 11 9 8 8 9 11 13 15 17 19 21 23 25 26
14 11 9 10 10 11 11 11 11 11 9 7 6 5 2 1 4 6 8 10 12 14 16 17 19 19 20 20 21 20 20 18 17 16 15 12 10 8 6 7 8 10 12 14 17 19 21 23 25
13 11 11 11 11 12 12 12 11 10 8 7 6 4 2 1 3 5 7 9 11 13 15 17 18 19 20 20 21 21 21 20 19 18 16 14 12 9 6 5 6 8 9 12 14 17 19 21 24
11 12 12 12 12 12 12 11 11 9 8 7 6 5 3 2 3 4 6 8 10 12 14 16 17 18 19 20 20 21 21 20 20 18 17 15 14 11 9 7 5 6 7 10 12 14 17 20 22
13 13 13 13 13 12 12 10 10 9 8 7 6 6 4 3 3 4 5 7 10 12 13 15 17 18 19 20 20 20 20 20 20 20 18 16 15 13 11 9 7 6 5 7 9 12 15 18 20
14 14 14 14 14 12 11 10 9 8 8 8 7 7 5 4 3 3 4 6 8 11 12 14 16 17 18 19 20 20 20 20 20 20 18 17 15 14 12 11 9 7 5 5 7 9 12 15 18
14 15 15 14 14 12 11 10 8 9 9 9 8 7 6 4 2 2 3 5 8 10 12 14 15 17 18 19 19 20 20 20 19 19 18 17 16 15 13 12 11 9 7 5 5 7 10 13 15
15 15 15 15 13 12 11 10 9 9 9 9 9 8 7 5 3 1 2 5 7 9 11 13 15 16 18 19 19 19 19 19 19 19 18 17 16 15 14 13 12 10 8 7 7 7 8 11 13
15 15 15 15 14 12 11 10 9 10 10 10 10 9 7 5 3 1 2 4 6 9 11 13 15 16 17 18 19 19 19 19 18 18 18 17 16 15 14 14 13 11 9 8 7 7 8 9 11
14 15 16 16 15 14 12 10 10 12 12 12 11 10 8 6 4 2 1 3 6 8 11 13 15 16 17 18 18 18 18 18 18 18 18 17 16 15 15 14 14 12 11 10 9 9 9 9 11
14 15 15 16 16 15 12 10 11 13 13 12 12 10 9 7 5 3 2 3 6 8 10 13 14 16 17 17 17 17 17 18 17 17 17 17 16 16 15 15 14 13 13 12 11 11 10 10 10
13 14 15 15 15 15 12 10 12 13 13 12 12 11 9 8 6 4 3 4 6 8 10 12 14 15 17 17 17 16 17 17 17 17 17 17 17 16 15 15 15 14 14 13 13 12 12 11 11
15 15 15 15 15 14 13 10 13 14 13 13 12 12 10 9 7 5 4 4 6 8 10 12 13 15 16 16 16 16 16 16 16 16 16 16 16 16 16 16 15 15 15 14 14 13 13 12 12
Wind_Direction
309 309 307 307 333 92 98 87 27 346 338 337 333 327 322 321 320 318 318 314 309 305 302 298 297 296 295 294 292 290 289 285 282 280 277 271 266 262 259 254 253 253 254 255 254 255 258 260 262
297 304 305 298 23 72 78 31 331 322 327 325 321 319 318 317 316 314 313 308 303 301 297 292 291 291 289 286 284 283 281 280 278 277 275 272 269 266 261 257 255 255 254 253 254 256 258 260 262
286 296 297 316 340 357 356 327 320 321 318 317 314 313 314 314 313 311 309 305 302 299 295 290 288 287 285 282 280 278 276 275 274 273 271 270 268 265 262 259 255 254 253 253 254 254 256 258 260
281 293 308 322 334 339 329 316 313 312 310 310 311 312 313 312 309 307 304 302 299 296 294 290 287 284 281 279 277 274 273 271 270 268 266 266 266 263 260 258 256 253 253 253 253 253 254 256 257
276 278 293 306 312 314 311 309 305 305 307 310 313 314 312 310 308 305 303 301 299 296 294 292 289 287 284 280 277 274 272 270 267 264 263 262 263 261 258 256 255 254 252 252 252 251 251 251 252
269 270 274 288 297 303 303 303 305 302 306 311 313 312 311 310 308 306 304 302 300 298 296 295 294 292 288 284 280 276 273 271 268 265 262 260 260 259 257 255 255 252 252 251 250 249 249 247 247
259 266 276 280 287 293 294 293 297 300 308 313 312 311 312 310 310 307 305 303 302 300 299 298 297 295 291 288 285 281 277 272 269 266 263 261 258 256 256 257 255 254 252 251 250 248 246 244 242
255 265 275 277 280 289 293 289 295 301 307 309 311 311 311 311 310 309 308 308 308 307 307 306 304 301 298 294 290 285 281 276 272 268 264 261 258 256 255 254 254 252 252 250 248 246 243 241 240
253 262 271 280 284 291 295 293 296 303 305 308 312 313 313 313 313 314 316 317 317 317 316 315 314 310 305 300 296 291 286 281 277 272 267 263 260 257 255 253 252 250 251 249 246 245 241 238 236
249 260 271 281 289 295 295 294 296 303 305 310 313 315 316 317 319 323 324 324 324 323 321 321 319 316 311 306 302 297 292 286 281 275 270 266 262 258 256 254 252 249 248 247 246 244 241 237 235
247 256 268 277 285 296 297 293 296 300 307 312 316 319 320 322 325 328 329 329 329 329 329 328 326 323 319 314 307 301 297 292 286 281 275 269 264 260 256 253 251 249 247 245 244 241 240 237 236
247 256 265 275 285 296 297 295 299 305 310 315 319 321 324 327 330 332 334 335 336 338 339 337 335 331 327 322 316 308 303 298 291 285 280 273 268 261 257 252 249 247 244 242 244 241 240 238 236
245 256 265 276 283 295 301 303 305 306 309 314 319 321 325 328 334 339 343 346 349 350 349 348 345 340 335 331 326 319 312 306 298 291 283 276 271 265 258 252 247 245 242 240 240 241 240 237 234
243 253 263 274 281 292 296 303 309 307 308 313 316 321 325 334 343 348 353 359 359 359 358 357 354 350 346 341 337 332 326 319 311 301 289 279 271 266 259 253 248 245 243 240 236 238 240 236 231
243 252 263 278 280 289 295 299 303 302 306 309 313 319 327 340 350 357 5 8 8 8 7 5 4 2 358 353 348 342 338 331 324 316 302 287 275 266 260 253 249 245 242 238 235 236 238 236 233
243 255 263 273 282 284 288 293 295 298 300 302 306 312 325 345 359 8 15 17 17 16 14 12 11 9 7 4 359 354 350 345 339 333 323 306 288 273 262 254 249 247 244 240 236 236 236 236 234
240 254 261 268 276 278 281 286 292 293 290 294 297 301 321 351 9 20 24 25 24 22 21 19 17 15 13 11 8 4 0 357 353 347 339 325 307 287 269 255 250 249 246 241 236 233 233 232 232
244 253 258 262 269 274 282 283 287 286 282 284 286 287 309 358 24 34 33 31 30 28 25 23 21 19 18 16 13 10 8 5 2 358 354 346 331 308 285 262 253 248 246 242 238 234 233 232 230
246 256 263 268 269 274 282 284 283 279 275 271 269 266 274 12 47 48 41 37 33 29 26 24 22 20 19 18 17 15 13 12 9 7 5 2 356 340 310 278 262 254 251 244 239 236 235 233 232
246 258 264 266 270 273 276 278 276 271 266 257 249 244 229 130 84 62 48 39 33 29 25 23 22 20 18 18 17 17 16 15 14 13 11 8 6 2 347 312 284 269 256 249 243 238 236 235 234
245 254 259 266 273 276 275 271 268 261 255 243 234 229 213 163 105 72 52 40 32 28 25 22 21 20 18 18 18 17 16 15 15 14 13 12 11 9 3 350 322 293 267 253 246 240 237 235 235
241 250 259 267 273 277 276 264 262 255 242 230 227 221 207 176 126 81 53 38 30 26 23 22 21 19 17 16 16 15 15 14 15 15 15 14 13 12 9 4 353 332 294 265 252 243 240 238 237
241 250 261 269 274 276 274 266 257 249 231 221 221 219 208 186 144 89 51 34 27 24 21 20 18 16 14 13 13 13 13 13 14 15 16 16 15 13 12 9 3 353 335 298 268 256 249 246 243
241 251 263 269 274 276 271 268 257 247 230 220 220 218 210 194 164 99 48 31 24 20 18 16 15 13 12 11 10 11 11 11 12 13 13 13 14 13 13 12 9 2 350 331 299 275 262 253 250
244 255 265 270 272 274 269 267 256 248 234 224 222 219 212 199 183 131 43 27 20 17 15 12 10 9 8 8 8 8 9 10 10 11 12 12 13 14 14 13 11 7 358 342 325 303 281 266 259
251 261 269 273 272 269 266 264 252 247 235 226 222 221 215 205 194 171 32 19 14 12 11 8 6 5 5 5 5 6 8 9 10 11 12 12 12 12 12 12 10 8 2 352 340 326 304 283 271
256 265 272 274 273 271 265 258 247 242 235 228 223 221 217 211 208 213 340 1 5 6 5 4 2 2 2 2 3 4 6 8 9 10 10 11 11 11 10 9 8 6 1 355 345 334 320 302 286
263 268 272 274 275 274 266 253 242 235 233 228 224 222 221 219 221 231 282 340 354 357 358 358 359 359 359 359 0 3 5 6 7 7 8 9 9 9 8 8 6 4 0 355 349 341 331 320 305
266 270 272 273 275 276 265 247 238 232 231 230 227 226 225 225 228 238 269 316 339 347 351 353 354 355 356 358 0 2 3 4 5 5 6 7 8 8 7 5 4 2 360 356 352 346 339 332 325
267 272 273 274 274 272 265 245 238 232 230 231 229 227 228 228 232 242 266 301 326 338 345 348 350 352 355 358 359 0 0 1 2 4 5 5 6 6 6 5 3 1 359 357 355 352 348 342 336
Height
5885 5884 5884 5884 5884 5883 5883 5883 5883 5883 5883 5882 5881 5881 5880 5879 5879 5880 5877 5875 5874 5872 5872 5871 5869 5868 5867 5866 5865 5864 5863 5863 5862 5862 5862 5862 5863 5863 5864 5864 5865 5865 5866 5867 5868 5868 5869 5870 5871
5884 5884 5885 5884 5883 5883 5884 5883 5883 5883 5882 5881 5880 5879 5878 5877 5876 5875 5873 5872 5871 5870 5868 5867 5866 5865 5864 5862 5861 5860 5860 5859 5859 5859 5859 5859 5859 5860 5860 5861 5862 5862 5863 5864 5865 5866 5867 5868 5869
5884 5884 5884 5883 5882 5883 5883 5883 5882 5882 5881 5880 5879 5878 5877 5875 5874 5872 5871 5869 5868 5866 5865 5863 5862 5861 5859 5858 5857 5856 5855 5855 5855 5855 5855 5855 5855 5856 5857 5858 5858 5859 5860 5861 5862 5863 5864 5865 5866
5883 5883 5881 5881 5882 5882 5882 5882 5881 5881 5880 5879 5878 5877 5875 5873 5872 5870 5868 5866 5865 5863 5861 5860 5858 5856 5855 5854 5853 5852 5851 5850 5850 5850 5850 5850 5851 5852 5852 5854 5855 5856 5857 5858 5859 5860 5861 5862 5863
5881 5882 5882 5881 5881 5881 5881 5880 5879 5879 5878 5877 5876 5874 5872 5871 5869 5867 5865 5863 5861 5859 5857 5855 5853 5851 5850 5849 5847 5846 5846 5845 5845 5845 5845 5845 5846 5847 5848 5849 5851 5852 5853 5854 5855 5857 5858 5859 5861
5880 5880 5880 5879 5879 5880 5879 5878 5877 5877 5876 5875 5873 5872 5870 5868 5866 5864 5861 5859 5857 5855 5853 5850 5848 5846 5844 5843 5841 5840 5840 5839 5838 5839 5839 5840 5841 5842 5843 5844 5845 5847 5848 5850 5852 5853 5855 5856 5858
5879 5878 5878 5878 5877 5877 5878 5876 5876 5875 5874 5873 5871 5870 5867 5865 5863 5861 5858 5856 5853 5850 5848 5846 5843 5841 5839 5837 5836 5834 5833 5832 5832 5832 5832 5833 5834 5835 5837 5838 5840 5841 5843 5845 5847 5849 5851 5853 5854
5876 5877 5876 5876 5875 5876 5876 5874 5873 5873 5871 5870 5869 5867 5865 5863 5860 5857 5855 5852 5849 5846 5843 5841 5838 5836 5834 5832 5830 5828 5827 5826 5826 5825 5825 5826 5827 5828 5830 5832 5834 5836 5838 5839 5842 5844 5846 5848 5850
5873 5875 5874 5874 5873 5873 5873 5872 5871 5870 5869 5868 5866 5864 5862 5859 5856 5854 5851 5848 5845 5842 5839 5837 5834 5832 5829 5827 5825 5823 5822 5820 5820 5819 5819 5819 5820 5822 5823 5825 5827 5829 5831 5834 5836 5838 5841 5843 5846
5871 5871 5871 5871 5871 5871 5870 5870 5869 5868 5867 5865 5863 5861 5859 5856 5853 5850 5848 5845 5842 5839 5836 5833 5831 5828 5825 5823 5820 5818 5816 5815 5814 5813 5813 5813 5813 5814 5816 5818 5820 5823 5825 5827 5830 5833 5836 5838 5841
5867 5869 5869 5869 5869 5868 5868 5867 5866 5866 5864 5863 5861 5858 5856 5853 5851 5848 5845 5842 5840 5837 5834 5830 5827 5824 5821 5818 5816 5814 5812 5810 5808 5807 5807 5806 5807 5808 5809 5811 5814 5816 5819 5822 5824 5827 5830 5833 5837
5865 5865 5866 5866 5866 5866 5866 5865 5865 5863 5862 5860 5858 5855 5853 5851 5848 5846 5843 5840 5837 5834 5831 5828 5824 5821 5818 5815 5812 5809 5807 5805 5803 5802 5801 5800 5800 5801 5803 5805 5807 5810 5813 5816 5819 5822 5825 5828 5832
5862 5863 5864 5864 5864 5864 5864 5863 5862 5861 5859 5857 5855 5853 5851 5849 5847 5844 5842 5838 5835 5832 5829 5825 5822 5818 5815 5812 5808 5806 5803 5801 5799 5797 5796 5795 5795 5795 5796 5798 5801 5803 5806 5809 5813 5816 5820 5823 5827
5859 5860 5861 5862 5862 5862 5861 5860 5859 5858 5857 5855 5853 5852 5849 5847 5845 5843 5840 5837 5834 5830 5827 5823 5820 5816 5813 5809 5806 5803 5800 5797 5794 5792 5791 5790 5790 5790 5791 5793 5795 5797 5800 5803 5807 5810 5814 5818 5822
5856 5858 5859 5859 5859 5859 5859 5858 5857 5856 5854 5853 5852 5850 5848 5846 5844 5841 5839 5835 5833 5829 5826 5822 5819 5815 5811 5807 5804 5800 5797 5794 5791 5789 5787 5786 5786 5786 5787 5788 5790 5792 5795 5798 5801 5805 5808 5812 5816
5853 5855 5857 5857 5857 5857 5858 5856 5855 5854 5852 5851 5850 5848 5846 5844 5843 5840 5837 5835 5832 5829 5826 5822 5819 5815 5811 5806 5803 5799 5796 5792 5789 5787 5785 5783 5782 5782 5783 5784 5786 5788 5790 5792 5796 5799 5803 5807 5810
5851 5853 5854 5855 5855 5854 5854 5853 5852 5851 5850 5849 5848 5847 5845 5843 5841 5839 5837 5834 5832 5829 5826 5823 5819 5815 5811 5806 5803 5799 5795 5792 5788 5786 5783 5781 5780 5779 5779 5780 5782 5784 5786 5788 5791 5794 5798 5801 5805
5849 5851 5851 5853 5853 5852 5852 5851 5850 5849 5848 5847 5846 5845 5844 5842 5840 5838 5837 5834 5832 5829 5826 5823 5819 5815 5811 5807 5803 5799 5795 5792 5788 5785 5782 5780 5778 5777 5777 5778 5779 5780 5782 5784 5786 5789 5792 5796 5800
5847 5848 5849 5850 5850 5850 5849 5848 5848 5847 5846 5845 5844 5844 5843 5841 5840 5838 5836 5834 5832 5829 5826 5823 5820 5816 5812 5808 5805 5800 5796 5792 5789 5785 5782 5780 5778 5776 5776 5776 5776 5778 5779 5780 5782 5785 5788 5791 5795
5844 5846 5847 5847 5847 5847 5847 5846 5845 5845 5844 5843 5843 5842 5842 5840 5839 5838 5836 5834 5832 5829 5827 5824 5820 5817 5813 5810 5806 5802 5798 5794 5790 5786 5783 5780 5778 5776 5775 5775 5775 5775 5776 5777 5779 5781 5784 5787 5790
5843 5844 5844 5845 5844 5844 5844 5844 5843 5842 5842 5841 5841 5841 5841 5840 5839 5837 5836 5834 5832 5830 5827 5824 5821 5818 5814 5811 5807 5803 5799 5795 5791 5788 5784 5781 5778 5776 5775 5774 5774 5773 5774 5775 5776 5778 5780 5783 5786
5840 5841 5842 5842 5842 5841 5842 5841 5841 5840 5840 5840 5840 5840 5839 5839 5838 5836 5835 5834 5832 5830 5827 5825 5822 5818 5815 5812 5808 5804 5801 5797 5793 5789 5785 5782 5779 5777 5775 5774 5773 5772 5772 5773 5773 5775 5777 5779 5781
5838 5839 5839 5839 5839 5839 5839 5838 5839 5838 5838 5838 5838 5839 5838 5838 5837 5836 5834 5833 5831 5830 5827 5825 5822 5819 5816 5813 5809 5805 5802 5798 5794 5790 5787 5783 5780 5778 5776 5774 5773 5772 5771 5771 5771 5772 5774 5775 5777
5836 5837 5837 5837 5836 5837 5836 5836 5836 5836 5836 5836 5837 5837 5837 5836 5836 5835 5834 5833 5831 5829 5827 5825 5822 5819 5816 5813 5810 5806 5803 5799 5795 5791 5788 5785 5782 5779 5776 5774 5773 5771 5770 5770 5770 5770 5771 5772 5773
5834 5835 5835 5834 5834 5834 5834 5833 5835 5834 5834 5835 5835 5836 5836 5835 5835 5834 5833 5832 5831 5829 5827 5825 5822 5820 5817 5814 5810 5807 5803 5799 5796 5792 5789 5785 5782 5780 5777 5775 5773 5771 5770 5769 5768 5768 5768 5768 5769
5831 5832 5833 5832 5832 5831 5831 5831 5833 5832 5832 5833 5834 5834 5834 5834 5834 5833 5832 5831 5830 5829 5827 5824 5822 5820 5817 5814 5810 5807 5803 5800 5796 5793 5790 5786 5783 5780 5778 5775 5773 5771 5769 5768 5767 5766 5765 5765 5765
5829 5829 5830 5829 5829 5828 5828 5829 5830 5830 5831 5831 5832 5832 5833 5833 5832 5832 5831 5831 5829 5828 5826 5824 5822 5819 5817 5814 5810 5807 5804 5800 5797 5794 5790 5787 5784 5781 5778 5775 5773 5771 5769 5767 5765 5764 5763 5762 5761
5827 5827 5827 5826 5825 5825 5826 5826 5828 5827 5828 5829 5830 5830 5831 5831 5831 5831 5830 5829 5828 5827 5825 5823 5821 5819 5816 5813 5810 5807 5804 5800 5797 5794 5791 5787 5784 5781 5778 5775 5773 5770 5768 5766 5764 5762 5760 5758 5757
5825 5825 5824 5823 5823 5823 5823 5826 5825 5825 5826 5827 5827 5828 5829 5829 5829 5829 5829 5828 5827 5826 5824 5823 5820 5818 5815 5812 5809 5806 5803 5800 5797 5794 5791 5788 5784 5781 5778 5775 5773 5770 5767 5764 5762 5759 5757 5755 5754
5821 5821 5821 5821 5820 5820 5820 5825 5822 5822 5823 5824 5825 5825 5826 5827 5827 5827 5827 5827 5826 5825 5823 5821 5819 5817 5815 5812 5809 5806 5803 5800 5797 5794 5791 5788 5785 5781 5778 5775 5772 5769 5766 5763 5760 5758 5755 5753 5751